TimeMST,TemperatureF,Dew PointF,Humidity,Sea Level PressureIn,VisibilityMPH,Wind Direction,Wind SpeedMPH,Gust SpeedMPH,PrecipitationIn,Events,Conditions,WindDirDegrees,DateUTC
12:53 AM,-5.1,-9.0,83,30.19,10.0,SSE,11.5,-,N/A,,Clear,160,2014-02-02 07:53:00
1:53 AM,-6.0,-9.9,83,30.18,10.0,SSE,6.9,-,N/A,,Clear,160,2014-02-02 08:53:00
2:53 AM,-8.0,-11.9,83,30.20,10.0,South,4.6,-,N/A,,Clear,170,2014-02-02 09:53:00
3:53 AM,-8.0,-11.9,83,30.17,10.0,South,11.5,-,N/A,,Clear,170,2014-02-02 10:53:00
4:53 AM,-7.1,-11.0,83,30.18,10.0,SSW,6.9,-,N/A,,Clear,200,2014-02-02 11:53:00
5:53 AM,-6.0,-9.0,87,30.19,10.0,South,5.8,-,N/A,,Clear,170,2014-02-02 12:53:00
6:53 AM,-7.1,-11.0,83,30.20,10.0,South,8.1,-,N/A,,Clear,190,2014-02-02 13:53:00
7:53 AM,-2.9,-8.0,79,30.22,10.0,West,5.8,-,N/A,,Clear,260,2014-02-02 14:53:00
8:53 AM,-0.9,-6.0,79,30.24,10.0,West,4.6,-,N/A,,Clear,260,2014-02-02 15:53:00
9:53 AM,8.1,1.9,76,30.24,10.0,West,6.9,-,N/A,,Clear,270,2014-02-02 16:53:00
10:53 AM,8.1,1.0,73,30.25,10.0,WSW,17.3,-,N/A,,Clear,250,2014-02-02 17:53:00
11:33 AM,10.9,5.0,77,30.07,10.0,West,9.2,-,N/A,,Mostly Cloudy,260,2014-02-02 18:33:00
11:53 AM,12.9,6.1,74,30.24,10.0,West,9.2,-,N/A,,Overcast,280,2014-02-02 18:53:00
12:30 PM,17.1,8.1,68,30.07,10.0,NNW,18.4,-,N/A,,Overcast,340,2014-02-02 19:30:00
12:53 PM,17.1,8.1,68,30.23,10.0,NW,16.1,-,N/A,,Mostly Cloudy,320,2014-02-02 19:53:00
1:04 PM,16.0,7.0,68,30.07,10.0,NW,16.1,-,N/A,,Partly Cloudy,320,2014-02-02 20:04:00
1:48 PM,15.8,6.8,68,30.06,10.0,NW,16.1,-,N/A,,Mostly Cloudy,320,2014-02-02 20:48:00
1:53 PM,16.0,7.0,68,30.23,10.0,NNW,15.0,-,N/A,,Mostly Cloudy,330,2014-02-02 20:53:00
2:14 PM,17.1,7.0,65,30.06,10.0,NNW,9.2,-,N/A,,Mostly Cloudy,340,2014-02-02 21:14:00
2:41 PM,16.0,7.0,68,30.06,10.0,NW,6.9,-,N/A,,Scattered Clouds,320,2014-02-02 21:41:00
2:53 PM,16.0,7.0,68,30.23,10.0,NW,8.1,-,N/A,,Scattered Clouds,320,2014-02-02 21:53:00
3:05 PM,15.1,7.0,70,30.06,10.0,WNW,5.8,-,N/A,,Mostly Cloudy,300,2014-02-02 22:05:00
3:53 PM,15.1,8.1,74,30.24,10.0,WNW,3.5,-,N/A,,Overcast,290,2014-02-02 22:53:00
4:53 PM,14.0,7.0,74,30.24,10.0,SSW,4.6,-,N/A,,Overcast,200,2014-02-02 23:53:00
5:53 PM,14.0,8.1,77,30.24,10.0,South,4.6,-,N/A,,Overcast,190,2014-02-03 00:53:00
6:53 PM,12.9,8.1,81,30.24,10.0,South,3.5,-,N/A,,Overcast,180,2014-02-03 01:53:00
7:01 PM,12.9,8.1,81,30.05,10.0,SSE,4.6,-,N/A,,Overcast,150,2014-02-03 02:01:00
7:53 PM,12.9,8.1,81,30.21,10.0,South,4.6,-,N/A,,Overcast,170,2014-02-03 02:53:00
8:53 PM,12.9,7.0,77,30.21,10.0,SE,4.6,-,N/A,,Overcast,140,2014-02-03 03:53:00
9:53 PM,12.9,7.0,77,30.19,10.0,SSE,6.9,-,N/A,,Overcast,160,2014-02-03 04:53:00
10:53 PM,12.0,7.0,80,30.19,10.0,SSE,5.8,-,N/A,,Overcast,150,2014-02-03 05:53:00
11:53 PM,12.0,7.0,80,30.17,10.0,SSE,5.8,-,N/A,,Overcast,150,2014-02-03 06:53:00